This is the latest recevied weather packets stored in our database for station/object KQ7A. If no packets are shown the sender has not sent any weather packets the latest 10 day(s).
| Time | Temp. | Humidity | Pressure | Rain* | Wind** | Luminosity | Snow |
|---|---|---|---|---|---|---|---|
| 1777689323 | 19.44° C | 28% | 1015.9 hPa | 0 mm | - | 10 W/m² | - |
| 1777689020 | 19.44° C | 29% | 1015.6 hPa | 0 mm | - | 15 W/m² | - |
| 1777688717 | 19.44° C | 30% | 1015.9 hPa | 0 mm | - | 18 W/m² | - |
| 1777688415 | 19.44° C | 30% | 1016 hPa | 0 mm | - | 23 W/m² | - |
| 1777688112 | 19.44° C | 31% | 1016.1 hPa | 0 mm | - | 27 W/m² | - |
| 1777687809 | 18.89° C | 34% | 1016.2 hPa | 0 mm | - | 30 W/m² | - |
| 1777687507 | 18.89° C | 34% | 1016.2 hPa | 0 mm | - | 34 W/m² | - |
| 1777687203 | 18.33° C | 32% | 1016.1 hPa | 0 mm | - | 39 W/m² | - |
| 1777686901 | 18.33° C | 30% | 1016.1 hPa | 0 mm | - | 46 W/m² | - |
| 1777686597 | 18.89° C | 33% | 1016.3 hPa | 0 mm | - | 55 W/m² | - |
| 1777686294 | 18.89° C | 27% | 1015.9 hPa | 0 mm | - | 59 W/m² | - |
| 1777685990 | 19.44° C | 26% | 1016.3 hPa | 0 mm | - | 65 W/m² | - |
| 1777685686 | 19.44° C | 30% | 1016 hPa | 0 mm | - | 72 W/m² | - |
| 1777685383 | 19.44° C | 26% | 1016.3 hPa | 0 mm | - | 84 W/m² | - |
| 1777685081 | 20° C | 31% | 1016.4 hPa | 0 mm | - | 93 W/m² | - |
| 1777684778 | 20° C | 25% | 1016.2 hPa | 0 mm | - | 97 W/m² | - |
| 1777684474 | 20° C | 27% | 1016.3 hPa | 0 mm | - | 99 W/m² | - |
| 1777684171 | 20° C | 25% | 1016.2 hPa | 0 mm | - | 99 W/m² | - |
| 1777683867 | 20.56° C | 22% | 1016.3 hPa | 0 mm | - | 101 W/m² | - |
| 1777683564 | 21.11° C | 21% | 1016.2 hPa | 0 mm | - | 112 W/m² | - |
| 1777683262 | 21.67° C | 23% | 1016.3 hPa | 0 mm | - | 173 W/m² | - |
| 1777682960 | 21.67° C | 21% | 1016.3 hPa | 0 mm | - | 184 W/m² | - |
| 1777682655 | 21.67° C | 20% | 1016.4 hPa | 0 mm | - | 205 W/m² | - |
| 1777682353 | 21.67° C | 22% | 1016.6 hPa | 0 mm | - | 211 W/m² | - |
| 1777682050 | 22.22° C | 19% | 1016.2 hPa | 0 mm | - | 246 W/m² | - |
* Rain latest hour (hover to see other rain measurements)
** Current wind speed in m/s (hover to see current wind gust speed)